M I D A S
Marine Information and Data Acquisition System
Tripno 200 of the Zeeleeuw from 2002-01-18 05:26:21 to 2002-01-18 14:59:22
Back to CruiseResearch ActivitiesStationsMapUnderway DataData graphs

EquipmentUnitsComments
TimeDGPSUTC
LatitudeDGPSDM.mWGS84
LongitudeDGPSDM.mWGS84
SpeedMeteo Stationm/sRelative wind speed
DirectionMeteo StationdegRelative wind direction
TemperatureMeteo Stationdeg CelciusAir temperature
PressureMeteo StationPaAtmospheric pressure
HumidityMeteo Station%Relative humidity
Missing or incorrect values are displayed as -999
Metereological data collected by the RV Zeeleeuw from 2002-01-18 05:26:21 to 2002-01-18 14:59:22
Time Latitude Longitude Speed Direction Temperature Pressure Humidity
2002-01-18 05:27 51°13.686 2°55.904 2.9 335 5.8 101920 90
2002-01-18 05:28 51°13.683 2°55.903 2.5 333 5.8 101920 91
2002-01-18 05:29 51°13.686 2°55.886 3 309 5.8 101920 91
2002-01-18 05:30 51°13.687 2°55.802 4.8 299 6.1 101920 91
2002-01-18 05:31 51°13.682 2°55.735 2.5 297 6.1 101920 90
2002-01-18 05:32 51°13.728 2°55.736 4.1 143 6.1 101910 90
2002-01-18 05:33 51°13.848 2°55.625 6.2 141 6 101900 89
2002-01-18 05:34 51°13.994 2°55.518 5.7 160 5.9 101900 90
2002-01-18 05:35 51°14.106 2°55.434 6.3 166 5.9 101900 90
2002-01-18 05:36 51°14.215 2°55.333 6.8 172 5.9 101900 90
2002-01-18 05:37 51°14.304 2°55.173 7.9 171 5.8 101890 90
2002-01-18 05:38 51°14.393 2°54.993 8.5 168 5.6 101890 90
2002-01-18 05:39 51°14.53 2°54.79 9.1 168 5.6 101890 91
2002-01-18 05:40 51°14.692 2°54.601 8.4 169 5.5 101890 91
2002-01-18 05:41 51°14.858 2°54.421 9 163 5.5 101890 91
2002-01-18 05:42 51°15.026 2°54.249 8.2 173 5.4 101890 91
2002-01-18 05:43 51°15.204 2°54.078 9.1 170 5.4 101890 92
2002-01-18 05:44 51°15.391 2°53.889 9.9 170 5.3 101890 92
2002-01-18 05:45 51°15.583 2°53.691 11 170 5.3 101890 92
2002-01-18 05:46 51°15.778 2°53.492 9.2 169 5.4 101890 92
2002-01-18 05:47 51°15.978 2°53.307 8.6 164 5.2 101900 92
2002-01-18 05:48 51°16.183 2°53.123 9.7 162 5 101890 92
2002-01-18 05:49 51°16.392 2°52.959 10.1 161 5 101900 92
2002-01-18 05:50 51°16.609 2°52.822 10 161 5 101890 92
2002-01-18 05:51 51°16.824 2°52.683 10.4 164 5.1 101900 92
2002-01-18 05:52 51°17.037 2°52.538 10 166 5.1 101900 93
2002-01-18 05:53 51°17.251 2°52.394 10 166 5.1 101890 92
2002-01-18 05:54 51°17.468 2°52.268 11.2 168 5.2 101890 92
2002-01-18 05:55 51°17.682 2°52.145 11.4 165 5.3 101890 92
2002-01-18 05:56 51°17.907 2°52.022 11.8 161 5.4 101880 92
2002-01-18 05:57 51°18.134 2°51.904 10.9 163 5.5 101880 91
2002-01-18 05:58 51°18.35 2°51.783 10.4 160 5.5 101880 90
2002-01-18 05:59 51°18.57 2°51.661 9.4 163 5.6 101880 90
2002-01-18 06:00 51°18.784 2°51.561 10.2 164 5.6 101890 90
2002-01-18 06:01 51°19.007 2°51.451 9.1 170 5.6 101900 90
2002-01-18 06:02 51°19.23 2°51.342 9.6 170 5.6 101900 90
2002-01-18 06:03 51°19.456 2°51.236 8 169 5.5 101910 90
2002-01-18 06:04 51°19.687 2°51.144 6.6 163 5.4 101910 90
2002-01-18 06:05 51°19.913 2°51.056 7.6 157 5.3 101900 90
2002-01-18 06:06 51°20.139 2°50.966 8.6 158 5.2 101900 90
2002-01-18 06:07 51°20.361 2°50.88 9.9 166 5.2 101890 91
2002-01-18 06:08 51°20.587 2°50.795 9.9 163 5.2 101900 91
2002-01-18 06:09 51°20.816 2°50.707 9.6 160 5.2 101900 91
2002-01-18 06:10 51°21.014 2°50.54 11.8 146 5.3 101890 91
2002-01-18 06:11 51°21.16 2°50.263 10.9 144 5.3 101890 91
2002-01-18 06:12 51°21.301 2°49.981 10.7 150 5.4 101890 91
2002-01-18 06:13 51°21.447 2°49.708 11.6 152 5.4 101880 90
2002-01-18 06:14 51°21.621 2°49.465 11.4 154 5.4 101900 90
2002-01-18 06:15 51°21.82 2°49.311 11 161 5.3 101900 90
2002-01-18 06:16 51°22.042 2°49.179 10.7 154 5.4 101900 90
2002-01-18 06:17 51°22.263 2°49.075 10.7 153 5.4 101900 90
2002-01-18 06:18 51°22.479 2°48.968 10.6 153 5.4 101890 90
2002-01-18 06:19 51°22.71 2°48.89 12.1 162 5.4 101900 90
2002-01-18 06:20 51°22.94 2°48.836 11.3 164 5.4 101900 90
2002-01-18 06:21 51°23.172 2°48.771 11.2 164 5.5 101900 90
2002-01-18 06:22 51°23.404 2°48.702 10.8 159 5.5 101890 90
2002-01-18 06:23 51°23.646 2°48.672 11 164 5.5 101900 90
2002-01-18 06:24 51°23.872 2°48.642 10.2 169 5.5 101900 90
2002-01-18 06:25 51°24.108 2°48.609 11.3 167 5.5 101900 90
2002-01-18 06:26 51°24.342 2°48.575 10.1 165 5.5 101900 90
2002-01-18 06:27 51°24.578 2°48.547 9.2 164 5.5 101900 90
2002-01-18 06:28 51°24.815 2°48.521 9.6 172 5.5 101900 90
2002-01-18 06:29 51°25.039 2°48.5 8.6 172 5.5 101910 90
2002-01-18 06:30 51°25.227 2°48.482 8.8 175 5.5 101900 90
2002-01-18 06:31 51°25.405 2°48.465 9.2 177 5.6 101900 90
2002-01-18 06:32 51°25.58 2°48.449 9.4 179 5.6 101890 90
2002-01-18 06:33 51°25.755 2°48.435 8.3 182 5.6 101900 89
2002-01-18 06:34 51°25.883 2°48.44 7.1 196 5.6 101910 89
2002-01-18 06:35 51°25.968 2°48.436 7.2 191 5.6 101910 89
2002-01-18 06:36 51°26.034 2°48.42 5.9 189 5.6 101910 89
2002-01-18 06:37 51°26.088 2°48.4 5.9 186 5.7 101910 89
2002-01-18 06:38 51°26.135 2°48.378 6.3 185 5.7 101910 89
2002-01-18 06:39 51°26.174 2°48.364 5.9 197 5.6 101920 89
2002-01-18 06:40 51°26.207 2°48.36 5.7 207 5.7 101920 89
2002-01-18 06:41 51°26.237 2°48.363 4 207 5.7 101920 89
2002-01-18 06:42 51°26.265 2°48.373 2.3 224 5.7 101920 88
2002-01-18 06:43 51°26.29 2°48.386 1.7 241 5.7 101920 88
2002-01-18 06:44 51°26.313 2°48.4 1 235 5.7 101920 88
2002-01-18 06:45 51°26.335 2°48.412 1.3 231 5.7 101920 88
2002-01-18 06:46 51°26.356 2°48.423 1.8 235 5.7 101920 89
2002-01-18 06:47 51°26.376 2°48.435 1.2 236 5.7 101920 89
2002-01-18 06:48 51°26.396 2°48.447 1.9 221 5.7 101930 89
2002-01-18 06:49 51°26.421 2°48.464 1.6 258 5.7 101930 88
2002-01-18 06:50 51°26.448 2°48.495 4.3 283 5.7 101930 88
2002-01-18 06:51 51°26.465 2°48.542 4.1 318 5.7 101930 88
2002-01-18 06:52 51°26.464 2°48.588 4.5 11 5.8 101930 88
2002-01-18 06:53 51°26.45 2°48.618 5.1 128 5.8 101920 88
2002-01-18 06:54 51°26.432 2°48.625 5.1 63 5.8 101930 88
2002-01-18 06:55 51°26.413 2°48.625 5 47 5.8 101930 88
2002-01-18 06:56 51°26.387 2°48.63 4.7 64 5.8 101930 87
2002-01-18 06:57 51°26.359 2°48.629 5.3 73 5.8 101930 88
2002-01-18 06:58 51°26.331 2°48.62 5.5 76 5.7 101930 88
2002-01-18 06:59 51°26.302 2°48.611 5 81 5.7 101930 88
2002-01-18 07:00 51°26.272 2°48.601 4.7 81 5.7 101930 88
2002-01-18 07:01 51°26.244 2°48.587 5.2 80 5.7 101930 89
2002-01-18 07:02 51°26.218 2°48.574 5.8 81 5.7 101930 89
2002-01-18 07:03 51°26.193 2°48.564 6.1 74 5.7 101940 89
2002-01-18 07:04 51°26.166 2°48.552 5.3 80 5.6 101930 89
2002-01-18 07:05 51°26.141 2°48.54 6 76 5.7 101940 89
2002-01-18 07:06 51°26.115 2°48.526 5.4 81 5.7 101940 89
2002-01-18 07:07 51°26.091 2°48.512 5.3 83 5.7 101940 89
2002-01-18 07:08 51°26.066 2°48.497 4.8 84 5.6 101940 89
2002-01-18 07:09 51°26.041 2°48.483 5.5 81 5.6 101940 89
2002-01-18 07:10 51°26.016 2°48.47 5.5 83 5.6 101950 89
2002-01-18 07:11 51°25.993 2°48.454 5.2 85 5.6 101960 89
2002-01-18 07:12 51°25.976 2°48.442 5.2 82 5.6 101950 89
2002-01-18 07:13 51°25.965 2°48.432 5.3 81 5.6 101960 89
2002-01-18 07:14 51°25.956 2°48.425 5.7 81 5.7 101960 89
2002-01-18 07:15 51°25.95 2°48.422 5.6 71 5.6 101950 89
2002-01-18 07:16 51°25.945 2°48.42 4.9 67 5.7 101960 89
2002-01-18 07:17 51°25.941 2°48.42 5.6 63 5.6 101960 89
2002-01-18 07:18 51°25.938 2°48.42 4.6 56 5.6 101960 89
2002-01-18 07:19 51°25.934 2°48.421 4.5 57 5.6 101960 89
2002-01-18 07:20 51°25.931 2°48.421 5.1 60 5.6 101970 89
2002-01-18 07:21 51°25.927 2°48.422 4.8 67 5.6 101960 89
2002-01-18 07:22 51°25.923 2°48.42 4.8 71 5.6 101960 89
2002-01-18 07:23 51°25.92 2°48.417 4.9 69 5.6 101970 90
2002-01-18 07:24 51°25.918 2°48.416 4.8 70 5.6 101970 90
2002-01-18 07:25 51°25.915 2°48.412 5 74 5.6 101970 90
2002-01-18 07:26 51°25.913 2°48.41 5.1 70 5.6 101970 90
2002-01-18 07:27 51°25.91 2°48.407 4.1 82 5.6 101970 90
2002-01-18 07:28 51°25.907 2°48.403 4.3 76 5.6 101970 90
2002-01-18 07:29 51°25.905 2°48.399 4.5 72 5.6 101980 90
2002-01-18 07:30 51°25.902 2°48.395 5 74 5.6 101970 90
2002-01-18 07:31 51°25.9 2°48.393 4.4 60 5.6 101970 90
2002-01-18 07:32 51°25.898 2°48.391 5.1 71 5.6 101970 90
2002-01-18 07:33 51°25.896 2°48.389 4.8 61 5.6 101970 90
2002-01-18 07:34 51°25.893 2°48.385 5.2 64 5.6 101970 90
2002-01-18 07:35 51°25.889 2°48.381 5.3 56 5.6 101970 90
2002-01-18 07:36 51°25.873 2°48.378 5.1 39 5.6 101970 90
2002-01-18 07:37 51°25.854 2°48.4 3.5 356 5.6 101970 90
2002-01-18 07:38 51°25.851 2°48.442 3.7 299 5.6 101980 90
2002-01-18 07:39 51°25.873 2°48.477 1.9 250 5.7 101980 90
2002-01-18 07:40 51°25.911 2°48.499 1.6 248 5.6 101980 90
2002-01-18 07:41 51°25.952 2°48.512 1.6 239 5.6 101990 90
2002-01-18 07:42 51°25.985 2°48.516 1.8 214 5.6 101980 90
2002-01-18 07:43 51°26.012 2°48.516 0.9 246 5.6 101980 90
2002-01-18 07:44 51°26.035 2°48.513 1.6 222 5.6 101980 90
2002-01-18 07:45 51°26.056 2°48.509 2.6 224 5.6 101990 90
2002-01-18 07:46 51°26.073 2°48.503 2.7 227 5.6 101990 90
2002-01-18 07:47 51°26.086 2°48.497 2.8 215 5.6 101990 90
2002-01-18 07:48 51°26.105 2°48.492 2 218 5.5 101990 90
2002-01-18 07:49 51°26.13 2°48.588 3 44 5.5 101990 90
2002-01-18 07:50 51°26.057 2°48.594 6.9 114 5.6 101990 90
2002-01-18 07:51 51°26.001 2°48.465 8.2 118 5.6 101980 90
2002-01-18 07:52 51°25.984 2°48.426 4 148 5.6 102000 90
2002-01-18 07:53 51°25.982 2°48.43 5.4 149 5.6 101990 91
2002-01-18 07:54 51°25.981 2°48.409 5.6 163 5.6 101990 91
2002-01-18 07:55 51°25.983 2°48.41 6.7 195 5.6 101990 90
2002-01-18 07:56 51°26.025 2°48.391 3.8 261 5.6 102000 91
2002-01-18 07:57 51°26.036 2°48.398 3.8 284 5.6 101990 91
2002-01-18 07:58 51°26.049 2°48.449 3.4 325 5.6 101990 91
2002-01-18 07:59 51°26.052 2°48.474 3.9 328 5.8 101990 91
2002-01-18 08:00 51°26.052 2°48.492 4.4 333 5.7 101980 90
2002-01-18 08:01 51°26.051 2°48.508 4.5 323 5.7 101980 90
2002-01-18 08:02 51°26.052 2°48.523 4.5 317 5.8 101990 90
2002-01-18 08:03 51°26.054 2°48.537 3.8 312 6.1 101990 91
2002-01-18 08:04 51°26.057 2°48.547 4.3 299 6.1 101990 89
2002-01-18 08:05 51°26.061 2°48.557 5.1 287 5.9 101990 89
2002-01-18 08:06 51°26.065 2°48.564 5 281 5.8 102000 89
2002-01-18 08:07 51°26.071 2°48.569 4 272 5.7 101990 89
2002-01-18 08:08 51°26.078 2°48.57 4.7 254 5.7 102000 89
2002-01-18 08:09 51°26.085 2°48.568 3.1 250 5.7 102000 90
2002-01-18 08:10 51°26.091 2°48.565 2 247 5.6 101990 90
2002-01-18 08:11 51°26.096 2°48.558 1.2 224 5.6 102000 90
2002-01-18 08:12 51°26.102 2°48.551 1.4 241 5.6 102000 90
2002-01-18 08:13 51°26.106 2°48.543 1.7 240 5.6 101990 90
2002-01-18 08:14 51°26.11 2°48.535 1.4 227 5.6 102000 90
2002-01-18 08:15 51°26.114 2°48.525 0.8 236 5.6 102000 90
2002-01-18 08:16 51°26.118 2°48.515 1 232 5.6 102000 90
2002-01-18 08:17 51°26.121 2°48.506 1.2 234 5.6 102000 90
2002-01-18 08:18 51°26.124 2°48.495 1.3 236 5.5 102010 90
2002-01-18 08:19 51°26.127 2°48.485 2 248 5.5 102000 91
2002-01-18 08:20 51°26.131 2°48.474 1.6 248 5.5 102000 91
2002-01-18 08:21 51°26.134 2°48.464 1.6 244 5.5 102000 91
2002-01-18 08:22 51°26.138 2°48.451 1.2 228 5.5 102000 91
2002-01-18 08:23 51°26.142 2°48.439 1.4 236 5.5 102000 91
2002-01-18 08:24 51°26.145 2°48.426 0.9 244 5.5 102000 91
2002-01-18 08:25 51°26.148 2°48.413 1.1 234 5.5 102000 91
2002-01-18 08:26 51°26.151 2°48.399 1.4 238 5.5 102000 91
2002-01-18 08:27 51°26.181 2°48.4 3.2 281 5.5 102000 91
2002-01-18 08:28 51°26.195 2°48.502 0.8 17 5.5 102000 91
2002-01-18 08:29 51°26.221 2°48.746 2 125 5.5 102010 91
2002-01-18 08:30 51°26.251 2°48.995 1.5 96 5.5 102010 91
2002-01-18 08:31 51°26.281 2°49.234 1.3 75 5.6 102010 91
2002-01-18 08:32 51°26.308 2°49.462 1.1 60 5.6 102010 91
2002-01-18 08:33 51°26.337 2°49.686 1.5 50 5.6 102010 91
2002-01-18 08:34 51°26.366 2°49.918 1.4 43 5.6 102010 91
2002-01-18 08:35 51°26.393 2°50.145 1.2 51 5.7 102010 91
2002-01-18 08:36 51°26.42 2°50.371 1.2 55 5.7 102000 91
2002-01-18 08:37 51°26.447 2°50.59 1.2 54 5.7 102000 90
2002-01-18 08:38 51°26.479 2°50.825 0.6 25 5.7 102010 90
2002-01-18 08:39 51°26.51 2°51.054 0.8 16 5.7 102010 90
2002-01-18 08:40 51°26.542 2°51.279 0.5 32 5.7 102000 90
2002-01-18 08:41 51°26.574 2°51.514 0.9 14 5.8 102010 90
2002-01-18 08:42 51°26.604 2°51.736 0.1 31 5.8 102010 90
2002-01-18 08:43 51°26.633 2°51.962 0.5 50 5.8 102010 90
2002-01-18 08:44 51°26.664 2°52.185 0.5 76 5.8 102010 90
2002-01-18 08:45 51°26.694 2°52.41 0.7 64 5.8 102010 90
2002-01-18 08:46 51°26.724 2°52.647 0.9 94 5.8 102010 90
2002-01-18 08:47 51°26.756 2°52.876 0.6 55 5.7 102010 90
2002-01-18 08:48 51°26.787 2°53.11 0.6 102 5.7 102010 90
2002-01-18 08:49 51°26.816 2°53.34 0.6 63 5.7 102000 90
2002-01-18 08:50 51°26.845 2°53.57 0.8 97 5.6 102010 90
2002-01-18 08:51 51°26.871 2°53.798 1.1 95 5.6 102010 90
2002-01-18 08:52 51°26.898 2°54.022 1.1 53 5.6 102010 90
2002-01-18 08:53 51°26.922 2°54.246 1.2 51 5.6 102010 90
2002-01-18 08:54 51°26.946 2°54.468 1.7 72 5.5 102010 90
2002-01-18 08:55 51°26.97 2°54.694 1.7 70 5.5 102010 90
2002-01-18 08:56 51°26.995 2°54.927 2.7 76 5.5 102010 90
2002-01-18 08:57 51°27.02 2°55.152 2.1 64 5.4 102010 90
2002-01-18 08:58 51°27.049 2°55.382 2.3 79 5.4 102010 91
2002-01-18 08:59 51°27.075 2°55.61 2.3 78 5.3 102000 91
2002-01-18 09:00 51°27.102 2°55.831 2.6 79 5.3 102000 91
2002-01-18 09:01 51°27.128 2°56.043 2.5 75 5.2 102000 91
2002-01-18 09:02 51°27.155 2°56.262 2.1 83 5.2 102010 91
2002-01-18 09:03 51°27.181 2°56.477 1.9 67 5.2 102010 91
2002-01-18 09:04 51°27.209 2°56.689 1.3 61 5.2 102010 92
2002-01-18 09:05 51°27.236 2°56.899 0.8 59 5.2 102010 92
2002-01-18 09:06 51°27.263 2°57.105 0.9 317 5.2 102010 92
2002-01-18 09:07 51°27.29 2°57.314 1.1 57 5.3 102010 92
2002-01-18 09:08 51°27.316 2°57.523 1.6 65 5.3 102010 92
2002-01-18 09:09 51°27.343 2°57.737 1.3 60 5.3 102010 91
2002-01-18 09:10 51°27.372 2°57.942 2 71 5.3 102010 91
2002-01-18 09:11 51°27.397 2°58.151 2.2 74 5.3 102010 91
2002-01-18 09:12 51°27.422 2°58.36 2.5 67 5.2 102010 91
2002-01-18 09:13 51°27.447 2°58.568 3.1 75 5.2 102010 91
2002-01-18 09:14 51°27.471 2°58.776 3.3 79 5.1 102010 91
2002-01-18 09:15 51°27.495 2°58.983 2.7 85 5 102020 91
2002-01-18 09:16 51°27.518 2°59.191 2.6 85 4.9 102010 91
2002-01-18 09:17 51°27.542 2°59.403 3 70 4.9 102020 92
2002-01-18 09:18 51°27.564 2°59.613 3.2 61 4.9 102020 92
2002-01-18 09:19 51°27.587 2°59.817 2.6 56 4.9 102020 92
2002-01-18 09:20 51°27.609 3°0.023 2.2 55 4.9 102020 92
2002-01-18 09:21 51°27.637 3°0.228 2.9 51 4.9 102020 92
2002-01-18 09:22 51°27.663 3°0.428 2.3 46 4.9 102020 92
2002-01-18 09:23 51°27.691 3°0.63 2.4 48 5 102020 92
2002-01-18 09:24 51°27.719 3°0.836 2.4 52 5 102020 92
2002-01-18 09:25 51°27.745 3°1.035 2.2 45 5 102020 92
2002-01-18 09:26 51°27.772 3°1.236 2.1 46 5 102020 92
2002-01-18 09:27 51°27.806 3°1.429 1.7 34 5 102020 92
2002-01-18 09:28 51°27.839 3°1.58 1.6 347 5.1 102030 92
2002-01-18 09:29 51°27.871 3°1.711 2 15 5.1 102020 92
2002-01-18 09:30 51°27.893 3°1.85 1.7 348 5.1 102020 92
2002-01-18 09:31 51°27.925 3°1.978 1.9   5.2 102030 92
2002-01-18 09:32 51°27.956 3°2.108 2 12 5.2 102030 92
2002-01-18 09:33 51°27.979 3°2.242 2.2 6 5.2 102030 92
2002-01-18 09:34 51°28.008 3°2.37 2.1 355 5.2 102030 91
2002-01-18 09:35 51°28.032 3°2.505 2.7 22 5.2 102030 91
2002-01-18 09:36 51°28.037 3°2.647 2.5 13 5.2 102030 91
2002-01-18 09:37 51°28.065 3°2.777 1.8 343 5.2 102030 91
2002-01-18 09:38 51°28.094 3°2.913 2.2 3 5.2 102020 91
2002-01-18 09:39 51°28.112 3°3.06 2 8 5.2 102020 91
2002-01-18 09:40 51°28.137 3°3.204 1.7 350 5.2 102020 91
2002-01-18 09:41 51°28.168 3°3.316 2.6 317 5.2 102020 91
2002-01-18 09:42 51°28.188 3°3.376 3.4 332 5.2 102020 91
2002-01-18 09:43 51°28.194 3°3.423 3.2 351 5.2 102020 91
2002-01-18 09:44 51°28.193 3°3.468 3.5 359 5.2 102020 91
2002-01-18 09:45 51°28.187 3°3.508 3.5 9 5.2 102020 91
2002-01-18 09:46 51°28.179 3°3.546 3.3 10 5.2 102020 91
2002-01-18 09:47 51°28.169 3°3.582 3.8 14 5.2 102020 91
2002-01-18 09:48 51°28.157 3°3.612 4.1 20 5.2 102020 91
2002-01-18 09:49 51°28.145 3°3.632 4.8 26 5.2 102020 91
2002-01-18 09:50 51°28.134 3°3.646 4.5 16 5.1 102020 91
2002-01-18 09:51 51°28.126 3°3.657 4.7 11 5.1 102020 91
2002-01-18 09:52 51°28.119 3°3.666 4.4 11 5.1 102020 91
2002-01-18 09:53 51°28.111 3°3.673 4.3 7 5.1 102020 91
2002-01-18 09:54 51°28.105 3°3.679 4.1 360 5 102020 91
2002-01-18 09:55 51°28.098 3°3.683 3.7 1 5 102020 91
2002-01-18 09:56 51°28.092 3°3.687 3.9 357 5 102020 91
2002-01-18 09:57 51°28.086 3°3.691 4   5 102020 91
2002-01-18 09:58 51°28.081 3°3.693 3.6 355 5 102020 91
2002-01-18 09:59 51°28.077 3°3.695 3.8 348 4.9 102020 91
2002-01-18 10:00 51°28.074 3°3.696 3.8 347 4.9 102020 91
2002-01-18 10:01 51°28.072 3°3.695 3.9 338 4.8 102020 91
2002-01-18 10:02 51°28.07 3°3.694 3.7 336 4.8 102020 91
2002-01-18 10:03 51°28.068 3°3.691 3.9 326 4.7 102030 92
2002-01-18 10:04 51°28.067 3°3.687 4 327 4.7 102030 92
2002-01-18 10:05 51°28.065 3°3.681 3.8 320 4.7 102030 92
2002-01-18 10:06 51°28.063 3°3.674 3.9 318 4.8 102030 92
2002-01-18 10:07 51°28.062 3°3.664 3.3 313 4.9 102030 92
2002-01-18 10:08 51°28.061 3°3.652 4.3 306 5.2 102030 93
2002-01-18 10:09 51°28.06 3°3.639 4.3 300 5.2 102030 92
2002-01-18 10:10 51°28.058 3°3.623 4.4 286 5 102030 91
2002-01-18 10:11 51°28.056 3°3.607 4.2 277 4.9 102030 91
2002-01-18 10:12 51°28.053 3°3.588 4.3 259 4.8 102030 91
2002-01-18 10:13 51°28.048 3°3.57 2.2 239 4.8 102030 91
2002-01-18 10:14 51°28.042 3°3.551 1.2 238 4.9 102030 91
2002-01-18 10:15 51°28.035 3°3.531 1.3 252 4.8 102030 91
2002-01-18 10:16 51°28.028 3°3.513 1.4 247 4.9 102030 91
2002-01-18 10:17 51°28.02 3°3.494 1.1 230 4.9 102030 91
2002-01-18 10:18 51°28.011 3°3.476 3.3 217 4.9 102030 91
2002-01-18 10:19 51°28.003 3°3.459 3.5 210 4.9 102030 91
2002-01-18 10:20 51°27.994 3°3.441 3 207 4.8 102030 91
2002-01-18 10:21 51°27.985 3°3.423 3.7 211 4.8 102030 91
2002-01-18 10:22 51°27.976 3°3.406 4 216 4.7 102030 91
2002-01-18 10:23 51°27.968 3°3.391 3.2 205 4.7 102040 91
2002-01-18 10:24 51°27.958 3°3.376 4.2 208 4.7 102030 92
2002-01-18 10:25 51°27.949 3°3.363 3.1 213 4.7 102030 92
2002-01-18 10:26 51°27.94 3°3.348 1.5 239 4.7 102030 92
2002-01-18 10:27 51°27.931 3°3.334 1.2 226 4.6 102040 92
2002-01-18 10:28 51°27.922 3°3.319 1.4 234 4.6 102030 92
2002-01-18 10:29 51°27.913 3°3.305 2.7 226 4.6 102040 92
2002-01-18 10:30 51°27.904 3°3.29 2.9 225 4.6 102030 92
2002-01-18 10:31 51°27.895 3°3.276 1.5 204 4.6 102030 92
2002-01-18 10:32 51°27.886 3°3.261 1.4 232 4.6 102040 92
2002-01-18 10:33 51°27.878 3°3.247 1.2 220 4.5 102030 92
2002-01-18 10:34 51°27.869 3°3.233 0.9 235 4.5 102030 92
2002-01-18 10:35 51°27.859 3°3.218 1.1 232 4.5 102030 92
2002-01-18 10:36 51°27.849 3°3.203 1.7 234 4.3 102030 92
2002-01-18 10:37 51°27.84 3°3.188 1.7 226 4.3 102030 92
2002-01-18 10:38 51°27.831 3°3.173 2.3 214 4.3 102020 93
2002-01-18 10:39 51°27.821 3°3.158 1.6 238 4.3 102020 93
2002-01-18 10:40 51°27.812 3°3.141 1.7 230 4.2 102030 93
2002-01-18 10:41 51°27.803 3°3.124 0.5 237 4.2 102030 93
2002-01-18 10:42 51°27.794 3°3.108 1.5 242 4.2 102030 93
2002-01-18 10:43 51°27.785 3°3.091 1.6 246 4.3 102030 93
2002-01-18 10:44 51°27.776 3°3.072 0.9 234 4.2 102030 93
2002-01-18 10:45 51°27.767 3°3.051 1 239 4.3 102030 93
2002-01-18 10:46 51°27.758 3°3.03 0.6 229 4.3 102030 93
2002-01-18 10:47 51°27.748 3°3.006 1.1 256 4.3 102030 94
2002-01-18 10:48 51°27.739 3°2.983 2 243 4.3 102030 94
2002-01-18 10:49 51°27.729 3°2.959 2.1 315 4.4 102030 94
2002-01-18 10:50 51°27.718 3°2.934 2 214 4.4 102030 94
2002-01-18 10:51 51°27.707 3°2.909 1.2 214 4.4 102020 94
2002-01-18 10:52 51°27.696 3°2.883 2.2 203 4.4 102010 94
2002-01-18 10:53 51°27.685 3°2.858 1.7 243 4.4 102020 94
2002-01-18 10:54 51°27.674 3°2.832 0.9 243 4.4 102010 94
2002-01-18 10:55 51°27.662 3°2.805 1 246 4.4 102010 94
2002-01-18 10:56 51°27.651 3°2.778 1 234 4.4 102010 94
2002-01-18 10:57 51°27.64 3°2.75 1.3 226 4.4 102010 94
2002-01-18 10:58 51°27.629 3°2.723 1.1 245 4.4 102010 94
2002-01-18 10:59 51°27.617 3°2.695 1.5 237 4.5 102010 94
2002-01-18 11:00 51°27.606 3°2.667 1.5 255 4.5 102010 94
2002-01-18 11:01 51°27.594 3°2.639 1 238 4.5 102010 94
2002-01-18 11:02 51°27.581 3°2.61 1.3 254 4.5 102010 94
2002-01-18 11:03 51°27.568 3°2.579 1.3 241 4.5 102010 94
2002-01-18 11:04 51°27.556 3°2.548 1.6 244 4.5 102010 94
2002-01-18 11:05 51°27.541 3°2.517 1 250 4.4 102010 94
2002-01-18 11:06 51°27.529 3°2.484 2.1 249 4.4 102010 94
2002-01-18 11:07 51°27.535 3°2.421 0.7 247 4.4 102010 94
2002-01-18 11:08 51°27.644 3°2.415 2.7 96 4.4 102010 94
2002-01-18 11:09 51°27.762 3°2.648 4.8 94 4.4 102000 94
2002-01-18 11:10 51°27.868 3°2.922 3.9 84 4.4 101990 94
2002-01-18 11:11 51°27.967 3°3.21 5.6 97 4.3 102000 94
2002-01-18 11:12 51°28.028 3°3.522 4.8 97 4.2 101990 94
2002-01-18 11:13 51°28.101 3°3.826 4.4 90 4.1 101990 94
2002-01-18 11:14 51°28.168 3°4.137 4.4 86 4.1 101990 94
2002-01-18 11:15 51°28.238 3°4.447 5.4 79 4.1 101990 94
2002-01-18 11:16 51°28.306 3°4.755 4.9 77 4 101990 94
2002-01-18 11:17 51°28.371 3°5.07 5 85 4 102000 94
2002-01-18 11:18 51°28.434 3°5.384 4.7 81 4 102000 94
2002-01-18 11:19 51°28.496 3°5.696 5.1 78 4 102000 94
2002-01-18 11:20 51°28.56 3°6.013 4.8 80 4 101990 94
2002-01-18 11:21 51°28.624 3°6.34 4.2 91 4 101990 94
2002-01-18 11:22 51°28.685 3°6.661 4.2 91 4 101990 94
2002-01-18 11:23 51°28.748 3°6.98 4.2 80 4 101990 94
2002-01-18 11:24 51°28.811 3°7.3 4.1 80 4 101980 94
2002-01-18 11:25 51°28.875 3°7.623 4.6 81 4 101980 94
2002-01-18 11:26 51°28.941 3°7.942 4.1 84 4 101990 94
2002-01-18 11:27 51°29 3°8.264 4.5 85 4 101990 94
2002-01-18 11:28 51°29.052 3°8.59 5.3 88 4 101980 94
2002-01-18 11:29 51°29.104 3°8.916 6.4 94 3.9 101980 94
2002-01-18 11:30 51°29.155 3°9.235 5.6 86 3.8 101990 94
2002-01-18 11:31 51°29.206 3°9.569 6.4 77 3.8 101980 94
2002-01-18 11:32 51°29.257 3°9.895 5.2 95 3.7 101990 94
2002-01-18 11:33 51°29.309 3°10.224 4.4 90 3.7 101980 94
2002-01-18 11:34 51°29.361 3°10.553 4.9 84 3.7 101980 94
2002-01-18 11:35 51°29.413 3°10.881 7 94 3.7 101980 94
2002-01-18 11:36 51°29.465 3°11.207 5.7 87 3.5 101970 94
2002-01-18 11:37 51°29.504 3°11.533 6.2 88 3.4 101980 94
2002-01-18 11:38 51°29.507 3°11.875 5.6 86 3.3 101970 95
2002-01-18 11:39 51°29.518 3°12.221 4.9 86 3.3 101980 95
2002-01-18 11:40 51°29.54 3°12.56 4.8 85 3.3 101970 95
2002-01-18 11:41 51°29.574 3°12.897 4.7 90 3.3 101980 95
2002-01-18 11:42 51°29.604 3°13.239 5.7 95 3.4 101980 95
2002-01-18 11:43 51°29.635 3°13.58 6.1 81 3.3 101980 95
2002-01-18 11:44 51°29.664 3°13.926 5.6 82 3.3 101980 95
2002-01-18 11:45 51°29.695 3°14.273 6.6 82 3.3 101980 95
2002-01-18 11:46 51°29.726 3°14.621 5.3 85 3.3 101980 95
2002-01-18 11:47 51°29.771 3°14.96 5.5 71 3.3 101980 95
2002-01-18 11:48 51°29.82 3°15.29 5.2 79 3.2 101980 96
2002-01-18 11:49 51°29.897 3°15.616 5.4 68 3.2 101980 96
2002-01-18 11:50 51°29.982 3°15.929 4.1 77 3.2 101980 96
2002-01-18 11:51 51°30.07 3°16.24 2.8 85 3.2 101980 96
2002-01-18 11:52 51°30.168 3°16.543 4.5 78 3.2 101970 96
2002-01-18 11:53 51°30.264 3°16.848 3.5 88 3.2 101970 96
2002-01-18 11:54 51°30.371 3°17.148 3.8 93 3.2 101970 96
2002-01-18 11:55 51°30.474 3°17.453 4.8 79 3.3 101970 96
2002-01-18 11:56 51°30.582 3°17.754 3.9 79 3.2 101970 96
2002-01-18 11:57 51°30.688 3°18.059 4.7 76 3.2 101970 96
2002-01-18 11:58 51°30.792 3°18.363 4.6 78 3.2 101970 96
2002-01-18 11:59 51°30.898 3°18.673 4.9 71 3.2 101970 96
2002-01-18 12:00 51°30.955 3°18.906 5.1 42 3.1 101970 96
2002-01-18 12:01 51°30.965 3°19.018 4.7 22 3.2 101970 96
2002-01-18 12:02 51°30.954 3°19.086 5.2 322 3.2 101970 96
2002-01-18 12:03 51°30.943 3°19.061 5.9 29 3.2 101960 96
2002-01-18 12:04 51°30.929 3°19.036 6.4 23 3.2 101960 96
2002-01-18 12:05 51°30.933 3°19.076 4.1 331 3.2 101960 96
2002-01-18 12:06 51°30.971 3°19.083 3.3 264 3.2 101970 96
2002-01-18 12:07 51°30.987 3°19.067 5.7 265 3.2 101970 96
2002-01-18 12:08 51°30.991 3°19.049 1.6 254 3.2 101960 96
2002-01-18 12:09 51°30.988 3°19.033 1.3 258 3.2 101960 96
2002-01-18 12:10 51°30.98 3°19.021 2.5 207 3.1 101950 96
2002-01-18 12:11 51°30.97 3°19.013 1.8 223 3.2 101950 96
2002-01-18 12:12 51°30.958 3°19.008 2.3 211 3.2 101950 96
2002-01-18 12:13 51°30.946 3°19.005 4.1 211 3.3 101950 96
2002-01-18 12:14 51°30.933 3°19.003 3.7 220 3.4 101940 96
2002-01-18 12:15 51°30.921 3°19.004 2.9 204 3.5 101940 96
2002-01-18 12:16 51°30.909 3°19.006 2.1 134 3.6 101950 96
2002-01-18 12:17 51°30.896 3°19.009 2.6 217 3.7 101940 96
2002-01-18 12:18 51°30.884 3°19.013 4.4 217 3.8 101930 96
2002-01-18 12:19 51°30.871 3°19.017 4.1 206 3.8 101940 96
2002-01-18 12:20 51°30.859 3°19.022 4.4 198 3.9 101940 96
2002-01-18 12:21 51°30.851 3°19.02 2.1 237 3.9 101940 96
2002-01-18 12:22 51°30.88 3°18.996 4.7 255 3.9 101940 96
2002-01-18 12:23 51°30.928 3°18.981 5.4 263 3.8 101940 96
2002-01-18 12:24 51°30.96 3°19.006 5.1 299 3.8 101940 96
2002-01-18 12:25 51°30.972 3°19.034 5.7 301 3.7 101940 96
2002-01-18 12:26 51°30.974 3°19.057 6.9 297 3.7 101940 96
2002-01-18 12:27 51°30.975 3°19.077 6.3 291 3.6 101940 96
2002-01-18 12:28 51°30.976 3°19.093 6.4 270 3.6 101930 96
2002-01-18 12:29 51°30.976 3°19.107 6.5 264 3.6 101940 96
2002-01-18 12:30 51°30.973 3°19.117 4.3 254 3.6 101940 96
2002-01-18 12:31 51°30.967 3°19.126 1.6 239 3.5 101930 96
2002-01-18 12:32 51°30.959 3°19.136 2.2 233 3.5 101940 96
2002-01-18 12:33 51°30.949 3°19.146 2.3 228 3.4 101930 96
2002-01-18 12:34 51°30.937 3°19.158 1.7 243 3.5 101940 96
2002-01-18 12:35 51°30.925 3°19.17 2.1 237 3.5 101930 96
2002-01-18 12:36 51°30.913 3°19.183 2.3 228 3.5 101930 96
2002-01-18 12:37 51°30.901 3°19.196 2.7 132 3.6 101930 96
2002-01-18 12:38 51°30.889 3°19.209 3 232 3.6 101930 96
2002-01-18 12:39 51°30.878 3°19.224 3.3 216 3.5 101930 96
2002-01-18 12:40 51°30.866 3°19.239 3.8 213 3.3 101940 96
2002-01-18 12:41 51°30.854 3°19.252 6 224 3.3 101940 97
2002-01-18 12:42 51°30.842 3°19.267 3 240 3.3 101940 97
2002-01-18 12:43 51°30.837 3°19.263 9.2 205 3.2 101940 97
2002-01-18 12:44 51°30.814 3°19.12 11.1 155 3.2 101910 97
2002-01-18 12:45 51°30.712 3°18.956 12.9 147 3.2 101900 97
2002-01-18 12:46 51°30.588 3°18.725 14 149 3.2 101890 97
2002-01-18 12:47 51°30.45 3°18.452 15.9 154 3.3 101880 97
2002-01-18 12:48 51°30.312 3°18.17 16.2 151 3.2 101900 97
2002-01-18 12:49 51°30.172 3°17.886 14.6 153 3.1 101880 97
2002-01-18 12:50 51°30.038 3°17.594 16.3 152 3.1 101890 97
2002-01-18 12:51 51°29.902 3°17.303 15.9 153 3.1 101890 97
2002-01-18 12:52 51°29.765 3°17.011 16.7 155 3 101870 97
2002-01-18 12:53 51°29.628 3°16.724 13.9 157 3 101880 97
2002-01-18 12:54 51°29.49 3°16.433 15.8 157 3 101880 97
2002-01-18 12:55 51°29.354 3°16.142 14.2 158 3 101880 97
2002-01-18 12:56 51°29.217 3°15.851 16.9 159 3 101860 97
2002-01-18 12:57 51°29.078 3°15.559 16.6 156 3 101870 97
2002-01-18 12:58 51°28.94 3°15.264 15 152 3 101860 97
2002-01-18 12:59 51°28.807 3°14.966 14.2 158 3.1 101860 97
2002-01-18 13:00 51°28.68 3°14.663 14.4 158 3.1 101870 97
2002-01-18 13:01 51°28.552 3°14.36 13.3 157 3.1 101860 97
2002-01-18 13:02 51°28.425 3°14.058 15.3 160 3.1 101860 97
2002-01-18 13:03 51°28.297 3°13.757 14.8 156 3.2 101850 97
2002-01-18 13:04 51°28.169 3°13.456 13.9 157 3.2 101860 97
2002-01-18 13:05 51°28.041 3°13.152 13.6 157 3.2 101850 97
2002-01-18 13:06 51°27.911 3°12.85 13.5 160 3.3 101850 97
2002-01-18 13:07 51°27.791 3°12.541 13.9 157 3.3 101860 97
2002-01-18 13:08 51°27.669 3°12.233 13.7 156 3.3 101840 97
2002-01-18 13:09 51°27.546 3°11.924 14.4 159 3.3 101850 97
2002-01-18 13:10 51°27.423 3°11.614 13.1 160 3.4 101850 97
2002-01-18 13:11 51°27.298 3°11.304 13.2 158 3.4 101850 97
2002-01-18 13:12 51°27.175 3°10.993 13.1 155 3.4 101840 97
2002-01-18 13:13 51°27.05 3°10.683 14.6 157 3.5 101840 97
2002-01-18 13:14 51°26.926 3°10.372 14.3 158 3.5 101840 97
2002-01-18 13:15 51°26.802 3°10.06 13.1 156 3.5 101840 97
2002-01-18 13:16 51°26.678 3°9.75 13.2 159 3.5 101830 97
2002-01-18 13:17 51°26.555 3°9.439 14 156 3.5 101820 97
2002-01-18 13:18 51°26.432 3°9.131 13.8 161 3.5 101830 97
2002-01-18 13:19 51°26.308 3°8.82 15.6 160 3.5 101820 97
2002-01-18 13:20 51°26.184 3°8.509 14.8 162 3.6 101820 97
2002-01-18 13:21 51°26.063 3°8.198 14.1 161 3.6 101820 97
2002-01-18 13:22 51°25.939 3°7.888 13.8 153 3.6 101820 97
2002-01-18 13:23 51°25.741 3°7.708 13.4 142 3.6 101830 97
2002-01-18 13:24 51°25.519 3°7.58 15 144 3.7 101830 97
2002-01-18 13:25 51°25.297 3°7.452 15 142 3.7 101830 97
2002-01-18 13:26 51°25.074 3°7.334 14 142 3.7 101840 97
2002-01-18 13:27 51°24.848 3°7.217 13.1 141 3.8 101830 97
2002-01-18 13:28 51°24.624 3°7.106 12.9 142 3.8 101830 97
2002-01-18 13:29 51°24.403 3°6.992 14.2 143 3.9 101830 97
2002-01-18 13:30 51°24.182 3°6.881 12.8 145 4 101830 97
2002-01-18 13:31 51°23.964 3°6.774 12.9 145 4 101840 97
2002-01-18 13:32 51°23.75 3°6.673 13.6 145 4.1 101830 96
2002-01-18 13:33 51°23.535 3°6.575 12.1 149 4.1 101830 96
2002-01-18 13:34 51°23.319 3°6.474 12.2 148 4.1 101830 96
2002-01-18 13:35 51°23.104 3°6.373 11.9 147 4.2 101830 96
2002-01-18 13:36 51°22.889 3°6.274 13.3 146 4.2 101820 96
2002-01-18 13:37 51°22.676 3°6.168 13.3 146 4.3 101830 96
2002-01-18 13:38 51°22.465 3°6.064 12.7 143 4.3 101830 96
2002-01-18 13:39 51°22.265 3°5.929 13.9 146 4.3 101830 96
2002-01-18 13:40 51°22.113 3°5.697 13.4 157 4.4 101820 96
2002-01-18 13:41 51°21.964 3°5.442 12.9 152 4.5 101830 96
2002-01-18 13:42 51°21.825 3°5.182 12.1 159 4.5 101830 96
2002-01-18 13:43 51°21.696 3°4.909 11.3 153 4.5 101820 96
2002-01-18 13:44 51°21.564 3°4.638 10.9 152 4.6 101820 96
2002-01-18 13:45 51°21.432 3°4.366 11.2 155 4.6 101820 96
2002-01-18 13:46 51°21.315 3°4.08 10.4 161 4.6 101820 96
2002-01-18 13:47 51°21.22 3°3.778 10.8 162 4.6 101820 96
2002-01-18 13:48 51°21.129 3°3.476 10.5 165 4.6 101820 96
2002-01-18 13:49 51°21.045 3°3.17 10 159 4.6 101820 96
2002-01-18 13:50 51°20.959 3°2.864 10.6 160 4.6 101820 96
2002-01-18 13:51 51°20.874 3°2.562 10.4 160 4.7 101820 96
2002-01-18 13:52 51°20.792 3°2.266 9.9 159 4.7 101810 96
2002-01-18 13:53 51°20.707 3°1.961 9.7 161 4.7 101810 96
2002-01-18 13:54 51°20.624 3°1.662 10.5 163 4.7 101810 96
2002-01-18 13:55 51°20.549 3°1.359 10.8 164 4.7 101810 96
2002-01-18 13:56 51°20.473 3°1.055 9.8 164 4.7 101810 96
2002-01-18 13:57 51°20.397 3°0.752 9.8 166 4.8 101810 96
2002-01-18 13:58 51°20.32 3°0.449 10.1 167 4.8 101810 96
2002-01-18 13:59 51°20.244 3°0.145 9.5 166 4.8 101820 96
2002-01-18 14:00 51°20.169 2°59.839 8.9 162 4.9 101810 96
2002-01-18 14:01 51°20.093 2°59.532 9.9 166 4.8 101810 96
2002-01-18 14:02 51°20.019 2°59.224 9.8 164 4.9 101810 95
2002-01-18 14:03 51°19.944 2°58.915 10.3 165 4.9 101810 95
2002-01-18 14:04 51°19.869 2°58.606 9.9 160 5 101800 95
2002-01-18 14:05 51°19.796 2°58.298 9.8 162 5 101810 95
2002-01-18 14:06 51°19.722 2°57.991 9.2 156 5 101810 95
2002-01-18 14:07 51°19.649 2°57.683 11.4 160 5 101810 95
2002-01-18 14:08 51°19.572 2°57.377 11.6 158 5.2 101810 95
2002-01-18 14:09 51°19.49 2°57.076 10.5 160 5.2 101800 95
2002-01-18 14:10 51°19.409 2°56.775 11 160 5.2 101800 95
2002-01-18 14:11 51°19.329 2°56.472 10.9 158 5.2 101800 94
2002-01-18 14:12 51°19.248 2°56.17 11.4 155 5.2 101800 94
2002-01-18 14:13 51°19.165 2°55.868 11.3 155 5.2 101800 94
2002-01-18 14:14 51°19.083 2°55.566 11 152 5.2 101800 94
2002-01-18 14:15 51°19.002 2°55.262 12.5 153 5.2 101790 93
2002-01-18 14:16 51°18.924 2°54.958 12 153 5.3 101790 93
2002-01-18 14:17 51°18.846 2°54.656 11.9 150 5.3 101790 92
2002-01-18 14:18 51°18.769 2°54.353 11.6 151 5.4 101790 92
2002-01-18 14:19 51°18.691 2°54.051 12.3 152 5.5 101790 91
2002-01-18 14:20 51°18.614 2°53.749 12.2 150 5.5 101790 90
2002-01-18 14:21 51°18.537 2°53.445 13.2 151 5.6 101790 89
2002-01-18 14:22 51°18.461 2°53.143 12.3 154 5.6 101790 88
2002-01-18 14:23 51°18.385 2°52.84 11.8 154 5.7 101780 88
2002-01-18 14:24 51°18.309 2°52.537 13.2 155 5.7 101790 87
2002-01-18 14:25 51°18.182 2°52.3 12.2 142 5.7 101790 87
2002-01-18 14:26 51°17.98 2°52.263 12.9 130 5.7 101800 87
2002-01-18 14:27 51°17.769 2°52.319 11.4 130 5.7 101800 87
2002-01-18 14:28 51°17.558 2°52.371 12.4 129 5.7 101800 87
2002-01-18 14:29 51°17.351 2°52.477 11.3 123 5.7 101800 87
2002-01-18 14:30 51°17.151 2°52.628 12.3 121 5.7 101800 87
2002-01-18 14:31 51°16.953 2°52.796 11.5 119 5.8 101800 86
2002-01-18 14:32 51°16.755 2°52.968 12.1 119 5.8 101800 86
2002-01-18 14:33 51°16.559 2°53.148 10.8 119 5.9 101800 86
2002-01-18 14:34 51°16.368 2°53.329 10 121 6 101800 85
2002-01-18 14:35 51°16.176 2°53.51 10.9 119 5.9 101800 85
2002-01-18 14:36 51°15.982 2°53.682 10.5 119 6 101800 85
2002-01-18 14:37 51°15.788 2°53.856 10.5 121 6.1 101790 85
2002-01-18 14:38 51°15.595 2°54.028 10.6 124 6.1 101800 84
2002-01-18 14:39 51°15.398 2°54.179 11 122 6.1 101800 84
2002-01-18 14:40 51°15.201 2°54.322 12 121 6.1 101800 84
2002-01-18 14:41 51°15.005 2°54.48 11 123 6.2 101800 84
2002-01-18 14:42 51°14.814 2°54.648 10.4 126 6.3 101800 84
2002-01-18 14:43 51°14.634 2°54.809 10.9 125 6.4 101790 84
2002-01-18 14:44 51°14.454 2°54.97 9.9 117 6.7 101790 83
2002-01-18 14:45 51°14.306 2°55.172 5.5 92 6.9 101790 82
2002-01-18 14:46 51°14.205 2°55.343 5.3 128 7.1 101800 82
2002-01-18 14:47 51°14.1 2°55.434 6.3 123 7.2 101800 81
2002-01-18 14:48 51°14.014 2°55.494 5.8 128 7.3 101800 80
2002-01-18 14:49 51°13.886 2°55.585 7 134 7.4 101800 80
2002-01-18 14:50 51°13.782 2°55.676 4.1 115 7.5 101800 80
2002-01-18 14:51 51°13.733 2°55.758 2.9 119 7.5 101800 79
2002-01-18 14:52 51°13.706 2°55.821 3.1 89 7.5 101800 80
2002-01-18 14:53 51°13.691 2°55.883 4.4 54 7.4 101800 79
2002-01-18 14:54 51°13.686 2°55.91 2.6 92 7.4 101800 79
2002-01-18 14:55 51°13.686 2°55.903 2.1 18 7.5 101790 79
2002-01-18 14:56 51°13.689 2°55.899 1 87 7.5 101800 79
2002-01-18 14:57 51°13.688 2°55.905 3.3 29 7.5 101790 78
2002-01-18 14:58 51°13.687 2°55.903 5.8 119 7.5 101790 78